Wind_Speed
5 5 5 5 6 6 5 5 5 4 4 5 5 5 5 5 5 5 5 5 5 5 5 5 6 6 7 7 7 7 7 7 7 8 7 7 7 7 7 7 7 7 7
6 6 6 6 6 6 6 6 5 5 5 5 5 6 6 6 6 6 6 6 6 6 7 7 7 7 8 8 8 8 9 9 9 8 8 8 9 9 9 8 8 8 8
6 6 6 7 7 7 7 7 6 6 6 5 6 6 7 7 7 7 7 7 7 7 8 8 9 9 9 10 10 10 10 10 9 9 9 9 10 10 10 9 9 9 10
7 7 7 7 7 7 8 8 7 7 7 6 7 7 7 8 8 7 7 8 9 9 9 9 9 10 10 10 11 11 11 11 11 10 10 10 10 11 11 11 10 11 11
8 8 8 8 8 8 9 9 8 9 8 8 8 8 8 8 9 8 9 9 10 10 10 10 10 9 10 10 11 12 13 13 13 12 11 11 11 11 12 12 12 12 12
9 9 9 10 9 9 9 9 9 9 9 9 9 9 9 9 9 10 10 10 10 10 10 10 10 10 10 10 11 12 13 13 13 12 11 11 11 12 12 13 12 13 12
9 10 11 11 11 10 10 10 9 9 9 9 9 9 9 9 10 10 11 11 11 11 11 10 11 10 10 11 12 12 12 13 12 11 12 12 12 12 13 13 13 13 13
11 11 12 11 10 10 10 10 10 10 10 10 10 10 9 9 10 11 11 12 11 11 11 11 11 11 11 11 10 11 11 12 12 12 11 12 13 13 14 14 14 14 14
11 11 10 10 9 8 9 10 10 10 10 10 10 9 9 10 11 11 12 13 13 13 12 11 12 12 12 11 10 9 10 11 12 13 12 13 14 14 14 15 15 15 15
10 9 8 8 9 9 9 9 10 10 10 10 10 10 10 11 11 12 12 13 14 14 14 13 12 12 11 11 11 10 10 11 11 12 13 13 14 14 15 15 15 15 15
10 9 9 9 9 9 10 10 10 10 11 11 11 11 12 12 12 12 12 13 14 14 14 14 13 13 12 12 12 12 12 12 12 12 13 14 15 15 15 15 16 15 15
10 10 9 9 9 9 10 10 10 11 11 12 12 12 12 12 13 13 13 13 13 14 14 14 14 14 14 14 14 13 13 13 13 13 14 14 15 15 15 16 16 16 16
11 11 10 10 10 10 10 11 11 11 12 12 12 13 13 13 13 14 14 14 14 15 15 14 15 15 15 15 15 15 14 14 14 14 14 14 15 16 16 16 15 15 15
11 11 11 11 11 11 11 11 11 12 12 13 13 13 13 13 14 15 15 15 15 15 15 15 15 16 16 16 16 16 15 16 15 15 15 16 16 16 16 16 15 16 16
12 12 12 12 12 12 12 12 12 12 12 13 13 13 13 14 15 15 15 15 15 15 15 15 15 15 16 16 16 16 16 15 15 15 16 16 16 15 15 16 16 16 16
12 13 13 13 13 13 13 13 13 13 13 14 14 14 15 15 15 16 16 16 15 15 15 15 14 14 15 15 15 15 15 15 15 15 15 16 16 15 15 16 16 17 17
12 13 14 14 14 14 14 13 13 13 14 14 14 15 15 15 15 15 15 14 15 15 15 15 15 15 14 15 15 15 15 15 15 16 15 15 16 16 16 16 17 17 17
12 12 13 14 14 14 14 14 14 14 15 15 15 15 16 16 15 15 14 13 13 14 15 15 15 15 15 15 15 15 15 16 17 16 16 16 16 17 17 17 17 18 18
12 12 13 14 14 15 15 15 15 15 15 15 16 17 17 17 16 15 14 14 14 14 14 14 15 15 15 15 15 15 15 16 17 17 17 17 17 17 17 16 17 16 16
13 13 14 14 14 15 15 15 15 15 15 15 16 16 17 17 16 16 15 15 15 14 14 14 14 14 14 15 15 15 15 16 17 17 17 17 17 17 16 16 16 15 16
14 14 14 15 14 15 15 15 16 16 16 16 17 17 17 17 16 16 16 16 15 15 15 15 15 16 15 16 16 16 17 17 18 18 18 17 17 17 17 17 17 17 17
15 15 15 15 15 15 15 16 16 16 16 17 17 17 17 16 15 15 15 16 16 16 16 16 15 15 16 16 16 16 17 17 17 17 17 17 17 17 17 17 18 18 18
15 15 16 15 15 15 15 16 16 17 18 17 17 17 16 16 15 16 16 16 16 16 16 16 16 15 15 16 16 17 17 17 17 17 17 17 18 18 18 18 18 18 18
16 16 17 16 16 16 17 17 17 18 18 18 17 17 17 17 17 17 17 17 17 16 17 17 17 16 17 17 17 17 18 18 17 17 17 18 18 19 19 19 19 19 19
17 18 18 17 18 18 19 19 18 18 18 18 18 18 17 17 17 17 18 18 18 17 17 17 18 18 18 19 18 18 18 18 18 19 18 18 19 20 20 20 20 20 20
18 18 18 19 19 19 19 19 19 19 18 18 18 17 17 17 18 18 18 19 19 19 19 19 19 19 19 19 19 19 19 19 19 19 19 18 19 20 20 21 21 21 21
Wind_Direction
244 244 241 244 246 250 258 264 270 273 269 259 241 238 237 235 239 240 243 243 244 247 254 253 254 259 259 256 256 255 256 257 256 257 255 258 262 266 268 270 272 273 272
251 249 247 249 249 250 258 264 269 277 269 263 246 243 243 245 247 248 252 253 254 255 256 259 263 266 266 263 264 261 258 258 258 256 255 258 262 266 267 268 268 271 271
255 253 251 252 254 257 259 267 277 276 267 264 256 250 250 252 253 251 254 257 259 261 261 262 265 268 270 270 269 266 260 257 257 255 257 259 261 264 266 267 265 268 271
259 259 259 257 258 262 264 268 273 272 273 268 261 258 256 256 258 259 257 259 260 263 264 269 269 270 272 272 267 264 260 258 256 256 258 259 259 263 266 267 266 268 271
267 266 264 260 260 265 269 269 270 272 271 271 268 263 262 263 264 263 262 264 263 263 267 271 272 272 272 276 270 263 258 255 256 257 259 260 260 263 265 266 267 269 270
270 270 267 264 262 263 269 271 269 270 270 271 270 267 265 263 268 267 264 266 265 265 271 273 274 274 278 283 276 269 261 253 254 256 259 260 262 263 264 266 268 270 270
273 272 269 267 263 260 265 269 268 268 271 271 272 272 268 267 270 271 270 270 268 268 271 272 277 276 280 282 281 275 264 253 251 257 259 260 263 263 265 267 268 271 271
273 275 272 267 261 258 261 264 266 267 271 273 273 272 271 270 272 273 273 271 270 272 274 275 275 275 279 280 281 279 268 253 251 259 261 263 265 266 267 269 269 270 271
273 274 271 266 256 255 259 263 267 269 273 273 273 273 272 273 273 273 274 272 271 271 273 274 274 275 277 275 275 273 265 255 256 260 262 264 266 269 271 272 272 271 273
276 274 264 262 256 258 260 267 271 272 273 275 275 277 277 280 278 275 276 276 273 271 272 273 272 274 276 277 274 269 264 261 259 261 265 267 269 271 272 276 277 274 275
269 272 271 265 262 262 263 270 276 275 275 276 276 278 277 279 279 279 277 277 276 274 273 273 274 275 274 273 271 267 265 265 266 263 266 268 269 271 273 275 277 276 276
270 273 275 269 267 267 268 272 276 278 278 278 278 278 278 279 280 281 278 277 277 279 275 273 274 271 271 271 268 265 264 266 269 269 268 268 269 273 275 275 275 275 274
272 274 275 276 276 273 273 273 276 277 280 281 281 281 281 281 281 281 280 276 278 278 275 271 271 270 269 268 268 266 265 267 268 270 271 271 272 273 273 275 276 276 276
276 276 276 275 275 275 273 274 275 276 279 280 280 279 281 284 285 283 282 276 276 277 276 273 270 272 270 267 265 266 268 270 269 271 274 275 275 274 272 272 273 274 275
279 280 280 277 276 275 275 277 277 280 280 278 279 279 281 284 286 285 286 280 278 278 278 276 272 272 270 269 269 269 270 271 272 273 275 276 276 274 274 273 273 272 274
279 279 279 279 278 276 276 277 278 279 279 280 282 284 285 287 290 290 290 286 283 282 281 279 277 277 274 272 272 271 269 268 272 274 276 277 273 273 273 274 275 273 273
278 279 280 280 284 281 280 279 280 281 280 281 283 285 286 288 291 291 291 287 285 283 282 281 283 282 279 275 274 274 271 269 270 273 275 275 274 275 275 276 276 275 274
280 282 283 284 283 281 279 280 279 281 281 280 280 282 286 289 291 290 287 286 288 284 285 283 283 282 281 277 275 274 273 273 272 273 273 274 276 276 274 275 277 277 276
283 285 285 284 284 281 281 282 282 281 281 281 282 282 285 288 291 289 285 288 290 289 286 285 283 281 282 281 281 279 276 275 276 277 277 277 276 275 273 274 276 278 280
285 286 286 286 284 281 280 280 280 278 279 280 281 283 285 287 289 289 288 288 287 289 288 286 285 285 287 285 284 282 281 281 281 282 281 280 278 275 277 277 279 278 279
286 286 285 285 283 282 282 281 279 278 278 279 283 284 285 285 286 288 288 288 288 288 288 287 288 287 287 288 288 285 284 285 284 283 281 279 277 277 277 279 280 280 279
286 286 285 284 283 282 282 281 280 279 277 280 283 285 286 285 285 285 286 286 288 289 289 291 292 291 288 288 288 287 286 285 284 284 282 279 278 278 279 280 281 279 279
287 287 286 285 284 282 283 282 280 279 280 280 281 282 285 285 283 283 283 285 288 288 289 291 292 295 292 289 288 287 285 283 283 284 283 280 277 276 277 278 279 279 280
285 286 284 284 283 282 282 282 283 282 282 282 280 279 281 282 283 283 283 284 285 287 289 291 291 292 293 293 291 291 289 287 286 286 281 278 277 276 276 277 278 278 278
284 282 280 282 281 281 280 280 282 282 283 282 280 279 279 280 281 281 283 285 283 286 289 290 290 290 290 291 292 292 290 288 290 288 285 280 279 278 277 277 278 278 278
283 281 279 279 280 281 280 278 278 279 280 280 278 276 280 281 282 281 283 284 283 285 288 289 289 289 290 290 290 290 289 288 288 286 283 282 280 280 281 281 279 278 278
Height
5867 5867 5868 5868 5868 5869 5869 5869 5869 5869 5869 5869 5869 5869 5869 5870 5870 5870 5870 5870 5871 5871 5871 5871 5871 5871 5871 5871 5871 5871 5872 5872 5872 5872 5873 5873 5874 5874 5874 5874 5875 5875 5875
5866 5866 5867 5867 5868 5868 5868 5869 5869 5869 5868 5868 5868 5868 5869 5869 5869 5869 5870 5870 5870 5870 5870 5870 5870 5870 5870 5870 5870 5870 5870 5870 5870 5871 5871 5872 5872 5873 5873 5873 5873 5874 5874
5865 5866 5866 5866 5867 5867 5867 5868 5868 5868 5868 5868 5868 5868 5868 5868 5868 5868 5869 5869 5869 5869 5869 5869 5869 5869 5869 5868 5868 5868 5868 5868 5868 5869 5869 5870 5870 5871 5871 5872 5872 5872 5872
5865 5865 5865 5865 5866 5866 5866 5867 5867 5867 5867 5867 5867 5867 5867 5867 5867 5867 5868 5868 5868 5868 5868 5868 5867 5867 5867 5866 5866 5865 5865 5866 5866 5867 5868 5868 5869 5869 5870 5870 5870 5871 5871
5863 5864 5864 5864 5865 5865 5865 5865 5866 5866 5866 5866 5866 5866 5866 5866 5866 5866 5866 5866 5866 5866 5866 5866 5866 5865 5865 5864 5862 5861 5861 5862 5863 5864 5865 5866 5867 5867 5868 5868 5868 5869 5869
5862 5862 5862 5863 5863 5863 5864 5864 5864 5865 5865 5865 5865 5865 5865 5865 5865 5865 5865 5865 5864 5864 5864 5864 5864 5863 5862 5861 5858 5856 5856 5857 5860 5862 5863 5864 5864 5865 5866 5866 5866 5867 5867
5860 5860 5860 5860 5861 5861 5862 5862 5863 5863 5863 5863 5863 5863 5863 5864 5864 5863 5863 5863 5863 5863 5862 5862 5862 5861 5860 5858 5855 5852 5850 5853 5857 5859 5860 5862 5863 5863 5863 5864 5864 5865 5865
5858 5858 5857 5857 5858 5859 5860 5861 5861 5861 5861 5861 5861 5862 5862 5862 5862 5862 5862 5861 5861 5861 5860 5860 5860 5859 5858 5856 5853 5850 5848 5850 5855 5857 5858 5860 5860 5861 5861 5861 5862 5862 5862
5856 5856 5854 5854 5855 5857 5858 5859 5859 5859 5859 5859 5860 5860 5860 5860 5860 5860 5860 5859 5859 5859 5859 5858 5858 5858 5857 5855 5853 5851 5849 5851 5854 5855 5856 5858 5858 5858 5859 5859 5859 5859 5860
5855 5855 5854 5853 5854 5855 5856 5857 5857 5858 5858 5858 5858 5858 5858 5858 5858 5858 5857 5857 5857 5856 5856 5856 5856 5855 5855 5854 5852 5851 5851 5851 5853 5853 5855 5855 5856 5856 5856 5857 5857 5857 5857
5854 5854 5853 5853 5853 5854 5855 5855 5855 5856 5856 5856 5856 5856 5856 5856 5856 5855 5855 5855 5854 5854 5854 5854 5854 5853 5852 5852 5851 5851 5850 5850 5851 5851 5852 5853 5853 5853 5854 5854 5854 5854 5854
5852 5852 5852 5852 5852 5852 5853 5853 5854 5854 5854 5854 5854 5854 5854 5854 5853 5853 5853 5852 5852 5851 5851 5851 5851 5850 5850 5850 5849 5849 5849 5849 5849 5849 5850 5850 5850 5850 5850 5850 5850 5851 5851
5850 5850 5850 5850 5850 5851 5851 5851 5852 5852 5852 5852 5852 5852 5851 5851 5851 5850 5850 5849 5849 5849 5848 5848 5848 5847 5847 5847 5847 5847 5847 5847 5847 5847 5847 5847 5847 5847 5847 5847 5847 5847 5847
5848 5848 5848 5848 5848 5849 5849 5849 5849 5849 5849 5849 5849 5849 5849 5849 5848 5848 5847 5847 5846 5846 5846 5845 5845 5844 5844 5844 5844 5844 5844 5844 5844 5844 5844 5844 5844 5844 5844 5844 5844 5844 5844
5846 5846 5846 5846 5846 5846 5846 5847 5847 5847 5847 5847 5846 5846 5846 5846 5845 5845 5844 5843 5843 5843 5842 5842 5842 5841 5841 5841 5841 5841 5841 5841 5841 5840 5840 5840 5840 5840 5840 5840 5840 5840 5840
5844 5844 5844 5844 5844 5844 5844 5844 5844 5844 5844 5844 5844 5843 5843 5843 5843 5842 5841 5840 5840 5839 5839 5839 5838 5838 5838 5837 5837 5837 5838 5837 5837 5837 5837 5836 5837 5837 5837 5836 5836 5837 5837
5841 5841 5841 5841 5841 5841 5841 5841 5841 5842 5841 5841 5841 5841 5840 5840 5840 5839 5838 5837 5837 5836 5836 5835 5835 5835 5835 5834 5834 5834 5834 5834 5834 5834 5833 5833 5833 5833 5833 5833 5833 5832 5832
5839 5839 5838 5838 5838 5838 5838 5838 5838 5839 5839 5838 5838 5838 5837 5837 5836 5836 5835 5834 5834 5833 5832 5832 5832 5831 5831 5831 5831 5830 5830 5830 5830 5830 5830 5829 5829 5829 5829 5829 5828 5828 5828
5836 5836 5835 5835 5835 5835 5835 5835 5835 5835 5835 5835 5835 5834 5834 5834 5833 5832 5832 5831 5831 5830 5829 5829 5829 5828 5828 5827 5827 5827 5826 5826 5826 5826 5825 5825 5825 5825 5824 5824 5824 5824 5824
5833 5833 5833 5833 5832 5832 5832 5832 5832 5832 5832 5832 5831 5831 5831 5830 5829 5829 5828 5828 5828 5827 5826 5826 5825 5824 5824 5824 5824 5823 5822 5822 5822 5822 5821 5821 5820 5820 5820 5820 5820 5820 5820
5830 5830 5830 5829 5829 5829 5829 5828 5828 5828 5828 5828 5828 5827 5827 5826 5826 5825 5825 5825 5824 5824 5823 5822 5822 5821 5820 5820 5820 5819 5819 5818 5818 5817 5817 5816 5816 5816 5816 5816 5816 5816 5816
5827 5827 5826 5826 5826 5825 5825 5825 5825 5824 5824 5824 5824 5823 5823 5822 5822 5822 5821 5821 5820 5820 5820 5819 5818 5818 5817 5816 5816 5815 5815 5815 5814 5813 5813 5812 5812 5812 5812 5812 5812 5812 5812
5824 5823 5823 5822 5822 5822 5822 5821 5821 5821 5821 5820 5820 5820 5819 5819 5819 5818 5818 5817 5817 5816 5816 5815 5815 5814 5813 5813 5812 5812 5811 5810 5810 5809 5808 5808 5808 5808 5808 5808 5808 5808 5808
5820 5819 5819 5819 5818 5818 5818 5817 5817 5816 5816 5816 5816 5816 5815 5815 5815 5814 5814 5814 5813 5813 5812 5811 5811 5810 5810 5809 5808 5807 5806 5805 5805 5805 5804 5803 5803 5803 5803 5803 5803 5803 5803
5816 5816 5815 5815 5814 5814 5814 5813 5813 5812 5812 5811 5811 5811 5811 5811 5810 5810 5810 5809 5809 5808 5808 5807 5807 5806 5805 5805 5804 5803 5802 5801 5800 5799 5799 5799 5799 5798 5798 5798 5798 5798 5797
5812 5811 5811 5810 5810 5810 5809 5808 5808 5808 5807 5807 5807 5807 5807 5806 5806 5805 5805 5805 5804 5804 5803 5803 5802 5801 5801 5800 5799 5798 5797 5796 5795 5794 5794 5794 5794 5793 5792 5792 5792 5792 5792